Location: Ward Pound Ridge Reservation
(41.2500°N, 73.6000°W)
Time: 05:16:20
(UTC-04:00)

OTV 5 (USA 277) - Pass Details

Date: 13 October 2017
Orbit: 404 x 417 km, 43.0° (Epoch: 07 September)

Event Time Altitude Azimuth Distance (km) Brightness Sun altitude
Rises 20:24:26 0° 273° (W) 2,354 ? -24.8°
Reaches altitude 10° 20:26:33 10° 277° (W) 1,490 ? -25.2°
Enters shadow 20:28:29 30° 288° (WNW) 766 ? -25.5°
